Location: Home
(42.5358°N, 72.7383°W)
Time: 21:38:32
(UTC-05:00)

Altair - Pass Details

Date: 06 December 2021
Orbit: 1501 x 1683 km, 47.2° (Epoch: 26 January)

Event Time Altitude Azimuth Distance (km) Brightness Sun altitude
Rises 21:38:33 0° 295° (WNW) 4,660 10.5 -57.5°
Reaches altitude 10° 21:41:50 10° 288° (WNW) 3,664 9.8 -58.0°
Enters shadow 21:43:28 16° 283° (WNW) 3,208 9.4 -58.3°
